User: anonymous   Login
Location: Unspecified
(0.0000°N, 0.0000°E)
Time: 00:41:58
(UTC+00:00)
Language:

Early Bird - Orbit

View from above orbital plane
View from above orbital plane
View from above satellite
View from above satellite

Ground track
Ground track

The orbit data is extracted from the following two-line orbital elements,

1  1317U 65028A   18265.44713134 -.00000231 +00000-0 +00000-0 0  9999
2  1317 000.6879 046.2103 0004168 136.1228 255.2263 01.00357629098861
Epoch (UTC): 22 September 2018 10:43:52
Eccentricity: 0.0004168
inclination: 0.6879°
perigee height: 35744 km
apogee height: 35780 km
right ascension of ascending node: 46.2103°
argument of perigee: 136.1228°
revolutions per day: 1.00357629
mean anomaly at epoch: 255.2263°
orbit number at epoch: 9886

The dashed part of the orbit path shows where the satellite is in the earth's shadow,  

DLR